STARLINK-32799, 62847

Orbit data source: Space-Track

STARLINK-32799, 62847 is a payload satellite owned by SpaceX/Seattle (US) in LEO that was launched on Mon, 27 Jan 2025 UTC via an FALCON 9 launch vehicle from the Air Force Eastern Test Range (AFETR). Payload-class satellites include a variety of spacecraft equipped with specific instruments for various scientific and technological missions. These include communications satellites like Starlink; space stations such as the ISS; scientific satellites like the Hubble; Earth observation satellites from companies like Planet Labs, Umbra, and HawkEye 360; GPS; miniature CubeSats for education and research; and military/defense satellites.

Loading next visibility...
Identifier
62847, 2025-019U
Orbit
LEO
Country
Flag of USUS
Related business
Manufacturer
SpaceX/Seattle
Mission
Operational Commercial Communications
Bus & Motor
STARLINK V2M, Unknown motor
Mass
730 kg wet, ~700 kg dry
Launch date (UTC)
2025-01-27 (8 months ago)
Launch vehicle
FALCON 9
Launch site
Air Force Eastern Test Range (AFETR)
Object type
Payload
Rocket body
Debris
Shape & HBR
Box + 2 Pan, 14.5 m
Radar Cross Section
33.884 m², Large (>1 m²)

Expand to show TLE details & history
Last TLE update: 22 hours ago

TLE from 22 hours ago
0 STARLINK-32799
1 62847U 25019U   25260.28981019  .00028335  00000-0  10351-2 0  9990
2 62847  43.0014 348.0769 0003972 294.2937  65.7500 15.27578301 35735
Epoch: 2025-09-17T06:57Z
TLE epoch observation values (Epoch: 2025-09-17T06:57:19.6Z)
Latitude
0.00001°
Longitude
-112.72264°
Altitude
481.711 km
Speed
7.627 km/s
True Right ascension
23h 12m 18s
True Declination
0° 00' 00"
Sunlit
Object was in full shadow at epoch
Visualization orbit readout
Latitude
Unknown
Longitude
Unknown
Altitude
Unknown
Speed
Unknown
Apparent Right ascension
Unknown
Apparent Declination
Unknown
Sunlit
N/A
Visualization observer readout
Local Sidereal Time
22:02:44
Azimuth
Unknown
Elevation
Unknown
Doppler factor
Unknown
Orbital elements
Apogee altitude
487.725 km
Perigee altitude
482.273 km
Semi-major axis
6,863.136 km
Eccentricity
0.0004
Inclination
43.0014°
RAAN
348.0769°
Arg. of periapsis
294.2937°
True anomaly
65.79151°
Mean anomaly
65.75°
Eccentric anomaly
65.77075°
Mean motion
3.81733 °/min
Orbital period
94.31 mins
BSTAR
0.0010351
Loading maneuver chart data...
Computing Atmospheric mass density...
Loading historical data...
Loading historical data...
Loading historical data...
Loading historical data...
Loading historical data...
Loading historical data...
Loading historical data...

Documentation

Showing up to 5 results
|